Location: Boiro
(42.6475°N, 8.8834°W)
Time: 02:24:19
(UTC+01:00)

Vanguard 3 - Pass Details

Date: 01 December 2021
Orbit: 508 x 3260 km, 33.3° (Epoch: 19 January)

Event Time Altitude Azimuth Distance (km) Brightness Sun altitude
Exits shadow 04:41:29 24° 193° (SSW) 5,066 10.9 -44.2°
Maximum altitude 04:51:27 37° 150° (SSE) 4,200 10.7 -42.4°
Drops below altitude 10° 05:05:47 10° 91° (E) 5,239 11.9 -39.8°
Sets 05:09:41 0° 84° (E) 5,919 12.5 -39.1°
